Tracking 30313 objects as of 21-Apr-2025
HD Live streaming from Space Station
objects crossing your sky now

STARLINK-1364

Track STARLINK-1364 now!
10-day predictions
STARLINK-1364 is classified as:


NORAD ID: 45589
Int'l Code: 2020-025BL
Perigee: 553.3 km
Apogee: 555.4 km
Inclination: 53.1 °
Period: 95.6 minutes
Semi major axis: 6925 km
RCS: Unknown
Launch date: April 22, 2020
Source: United States (US)
Launch site: AIR FORCE EASTERN TEST RANGE (AFETR)
Your satellite tracking list
Your tracking list is empty




NASA's NSSDC Master Catalog

Two Line Element Set (TLE):
1 45589U 20025BL  25111.17696683  .00003022  00000-0  22165-3 0  9992
2 45589  53.0548  84.4298 0001540  86.8971 273.2194 15.06408286276296
Source of the keplerian elements: AFSPC